User: anonymous   Login
Location: Unspecified
(0.0000°N, 0.0000°E)
Time: 14:22:12
(UTC+00:00)
Language:

SPROUT - Orbit

View from above orbital plane
View from above orbital plane
View from above satellite
View from above satellite

Ground track
Ground track

The orbit data is extracted from the following two-line orbital elements,

1 39770U 14029E   18114.21620783  .00000891  00000-0  10607-3 0  9991
2 39770  97.8729 215.7244 0009958  34.6161 325.5701 14.86780571212349
Epoch (UTC): 24 April 2018 05:11:20
Eccentricity: 0.0009958
inclination: 97.8729°
perigee height: 601 km
apogee height: 615 km
right ascension of ascending node: 215.7244°
argument of perigee: 34.6161°
revolutions per day: 14.86780571
mean anomaly at epoch: 325.5701°
orbit number at epoch: 21234

The dashed part of the orbit path shows where the satellite is in the earth's shadow,  

DLR